FW0288 Weather Reports


time (UTC)temp
C
wind
direction
speed
KPH
gust
KPH
rain 1hr
cm
rain 24hr
cm
rain mn
cm
humidity
%
barometer
mb
20260506103023 -1 325 0.0 0.0 0.00 0.41 0.00 94 1018.4
20260506101520 -1 326 0.0 0.0 0.00 0.41 0.00 93 1018.4
20260506100120 -1 360 0.0 0.0 0.00 0.41 0.00 93 1018.5
20260506094519 -1 325 0.0 0.0 0.00 0.58 0.00 93 1018.7
20260506093016 -1 327 0.0 0.0 0.00 0.58 0.00 93 1018.3
20260506091518 -1 360 0.0 0.0 0.00 0.58 0.00 93 1018.2
20260506084511 0 360 0.0 0.0 0.00 0.61 0.00 93 1018.1
20260506083010 0 360 0.0 0.0 0.00 0.61 0.00 93 1018.1
20260506081511 0 308 0.0 0.0 0.00 0.61 0.00 93 1017.9
20260506073005 0 311 0.0 0.0 0.00 0.61 0.00 93 1017.9
20260506071502 0 360 0.0 0.0 0.00 0.61 0.00 93 1017.8
20260506061556 0 310 0.0 0.0 0.00 0.61 0.00 93 1017.1
20260506044549 0 312 0.0 0.0 0.00 0.61 0.61 93 1016.1
20260506043048 0 312 0.0 0.0 0.03 0.61 0.61 93 1016.2
20260506041553 0 312 0.0 0.0 0.03 0.61 0.61 93 1016.3
20260506040044 0 312 0.0 0.0 0.03 0.61 0.61 93 1015.8
20260506034544 0 312 0.0 0.0 0.03 0.79 0.61 93 1015.9
20260506033042 0 312 0.0 0.0 0.00 0.76 0.58 93 1015.7
20260506031540 0 312 0.0 3.2 0.00 0.76 0.58 93 1015.4
20260506030056 0 302 0.0 3.2 0.00 0.76 0.58 93 1014.8
20260506024549 0 301 0.0 1.6 0.00 0.94 0.58 93 1014.6
20260506023034 0 302 0.0 3.2 0.00 0.94 0.58 93 1014.1
20260506021532 0 300 0.0 1.6 0.00 0.94 0.58 93 1013.9
20260506020029 0 299 0.0 4.8 0.00 0.94 0.58 93 1013.4
20260506014528 0 360 0.0 4.8 0.00 0.94 0.58 92 1013.2
20260506013026 0 300 0.0 3.2 0.00 0.94 0.58 92 1012.8
20260506011533 0 288 0.0 6.4 0.00 0.94 0.58 93 1012.8
20260506010023 0 299 0.0 3.2 0.00 0.94 0.58 93 1012.5
20260506004540 0 298 0.0 6.4 0.00 0.94 0.58 92 1012.4
20260506003028 0 298 0.0 0.0 0.00 0.94 0.58 92 1012.3
20260506001522 0 303 0.0 0.0 0.00 0.94 0.58 92 1012.3
20260506000022 0 298 0.0 0.0 0.00 0.94 0.58 92 1012.0
20260505234516 0 297 0.0 0.0 0.00 0.94 0.58 92 1011.8
20260505233014 0 360 0.0 1.6 0.00 0.94 0.58 92 1011.2
20260505231520 0 316 0.0 3.2 0.00 0.94 0.58 92 1011.4
20260505230014 0 302 0.0 3.2 0.00 0.94 0.58 92 1011.3
20260505224511 0 290 0.0 3.2 0.00 0.94 0.58 92 1011.4
20260505223008 0 279 0.0 3.2 0.00 0.94 0.58 91 1010.9
20260505221506 0 360 0.0 3.2 0.00 0.94 0.58 92 1010.1
20260505220008 1 291 0.0 4.8 0.03 0.94 0.58 92 1010.3
20260505214504 1 360 0.0 4.8 0.03 0.94 0.58 92 1009.8
20260505213007 1 29 0.0 4.8 0.08 0.94 0.58 92 1009.6
20260505211503 1 355 0.0 6.4 0.08 0.94 0.58 91 1009.8
20260505210003 2 55 1.6 6.4 0.05 0.91 0.56 92 1009.3
20260505204502 2 12 0.0 1.6 0.05 0.91 0.56 91 1009.6
20260505203009 2 12 0.0 4.8 0.00 0.86 0.51 92 1009.7
20260505201503 2 42 0.0 3.2 0.00 0.86 0.51 92 1009.9
20260505200100 2 360 0.0 3.2 0.00 0.86 0.51 92 1010.0
20260505194601 2 9 0.0 3.2 0.00 0.86 0.51 92 1009.7
20260505193125 2 16 0.0 1.6 0.03 0.86 0.51 92 1009.7
20260505191606 2 28 0.0 3.2 0.03 0.86 0.51 92 1009.3
20260505190056 2 13 0.0 1.6 0.03 0.86 0.51 92 1009.2
20260505184601 3 40 0.0 4.8 0.03 0.86 0.51 93 1009.2
20260505183054 2 310 0.0 1.6 0.00 0.84 0.48 92 1009.5
20260505181553 2 5 0.0 0.0 0.00 0.84 0.48 92 1009.6
20260505180053 2 5 0.0 1.6 0.00 0.84 0.48 93 1009.5
20260505174549 2 15 0.0 1.6 0.03 0.84 0.48 92 1009.5
20260505173047 2 15 0.0 4.8 0.03 0.84 0.48 92 1009.8
20260505171549 2 355 0.0 1.6 0.03 0.84 0.48 92 1010.0
20260505170045 2 355 0.0 1.6 0.03 0.84 0.48 92 1009.6
20260505164545 2 355 0.0 0.0 0.00 0.81 0.46 92 1009.7
20260505163044 2 355 0.0 1.6 0.00 0.81 0.46 93 1009.6
20260505161544 1 355 0.0 4.8 0.03 0.81 0.46 92 1009.7
20260505153044 1 360 0.0 4.8 0.08 0.81 0.46 92 1009.6
20260505151538 1 360 0.0 1.6 0.08 0.79 0.43 92 1009.6
20260505124512 0 287 0.0 1.6 0.00 0.64 0.28 91 1008.2
20260505123009 0 279 0.0 3.2 0.03 0.64 0.28 91 1007.9
20260505121506 0 295 0.0 1.6 0.03 0.64 0.28 91 1007.8
20260505120005 0 296 0.0 1.6 0.03 0.64 0.28 91 1007.6
20260505114502 1 303 0.0 1.6 0.05 0.64 0.28 90 1007.2
20260505113107 1 295 0.0 1.6 0.03 0.61 0.25 90 1007.3
20260505111555 1 360 0.0 1.6 0.03 0.61 0.25 90 1006.9